Regional Weather Roundup
Issued by NWS Midland/Odessa, TX

Home | Current Version | Previous Version | Text Only | Print | Product List | Glossary On
Versions: 1 2 3 4 5 6 7 8 9 10 11 12 13 14 15 16 17 18 19 20 21 22 23 24 25 26 27 28 29 30 31 32 33 34 35 36 37 38 39 40 41 42 43 44 45 46 47 48 49 50
140
ASUS44 KMAF 310210
RWRMAF
MIDLAND AREA WEATHER ROUNDUP
NATIONAL WEATHER SERVICE MIDLAND TX
900 PM CDT MON MAY 30 2016

...IN SOUTHWEST TEXAS AND SOUTHEAST NEW MEXICO...

CITY           SKY/WX    TMP DP  RH WIND       PRES   REMARKS
ALPINE         CLOUDY    63  55  76 S17G25    30.14R THUNDER
ANDREWS        MOCLDY    78  61  56 SE18G26   29.93R
ARTESIA        MOCLDY    66  61  82 SE9       29.99F
BIG SPRING     CLOUDY    70  57  62 SE29G37   29.93F
CARLSBAD       CLOUDY    65  56  72 NW6       29.98F
DRYDEN           N/A     74  70  87 S5        29.92S
FORT STOCKTON  NOT AVBL
GUAD PASS      NOT AVBL
HOBBS          CLOUDY    77  54  44 SW9       29.94S
MARFA          LGT RAIN  60  57  89 SE20      30.08R
MIDLAND AIRPK  TSTM      69  60  73 E14G20    29.95R
MIDLAND INTL   MOCLDY    74  57  55 E21       29.94R
ODESSA         MOCLDY    79  64  60 SE20G28   29.95R
PECOS          CLOUDY    80  49  33 NW5       29.91F
PRESIDIO       FAIR      74  62  66 NE8       29.91R
SEMINOLE       CLOUDY    79  54  42 CALM      29.92R
SNYDER           N/A     74  69  87 SE5       29.93F
WINK           CLOUDY    78  51  38 W13       29.91R
$$
...OTHER STATIONS IN TEXAS...

CITY           SKY/WX    TMP DP  RH WIND       PRES   REMARKS
ABILENE        CLOUDY    79  70  74 SE7       29.92R
AMARILLO       CLEAR     72  63  73 SE14      29.94R
AUSTIN         MOCLDY    80  71  74 SE6       29.88F
BROWNSVILLE    PTCLDY    79  76  90 SE8       29.90R
CORPUS CHRISTI CLOUDY    81  75  82 SE9       29.91R
DALLAS FTW     MOCLDY    77  63  61 S6        29.89S
DEL RIO        MOCLDY    78  66  66 S7        29.87F
EL PASO        MOCLDY    80  43  26 SE8       29.92R
HOUSTON INT    PTCLDY    77  71  82 SE7       29.92R
LUBBOCK        MOCLDY    76  66  71 SE17G23   29.91S
SAN ANGELO     CLEAR     76  66  71 S6        29.92R
SAN ANTONIO    MOCLDY    78  68  71 SE8       29.90S
WACO           CLEAR     76  67  73 E6        29.90S
WICHITA FALLS  NOT AVBL
$$
...OTHER LOCATIONS IN NEW MEXICO...

CITY           SKY/WX    TMP DP  RH WIND       PRES   REMARKS
ALAMAGORDO     CLOUDY    77  37  24 SW3       29.94R
ALBUQUERQUE    CLOUDY    79  28  15 SW9       29.96R
CANNON AFB     CLOUDY    74  48  39 SW12      29.95R
CLOVIS         CLOUDY    72  52  49 S15       29.96R
HOLLOMAN AFB   CLOUDY    79  38  22 SE6       29.92R
ROSWELL        CLOUDY    68  52  56 S6        29.98R
RUIDOSO          N/A     59  41  51 SE13      30.14S
SANTA FE       CLOUDY    74  21  13 SW13      30.00R
TRUTH OR CONSE CLOUDY    76  38  25 E3        29.94R
TUCUMCARI      CLOUDY    80  41  24 S10       29.87R
$$




USA.gov is the U.S. government's official web portal to all federal, state and local government web resources and services.